カタログに戻る

STARLINK-35842

運用中通信VLEO
NORAD 67087·PAYLOAD·🇺🇸 United States

打ち上げ Dec 14, 2025 から Vandenberg Space Force Base

Loading…

次のパス (今後24時間)

TLE

最新Source: CelesTrak SupGP

元期: Sep 14, 2026, 21:18 UTC

1 67087C 25298N   26257.88798611  .00060146  00000+0  50420-2 0  2570
2 67087  69.9987 257.3838 0003826 266.9143 274.3790 14.98286582    10

AllMySatでSTARLINK-35842をリアルタイム追跡

Download on the App Store